Flag for U.S.A. Weather past 2 weeks in Paramus, New Jersey, U.S.A.

Now
88 °F

Scattered clouds.


Feels Like: 89 °F
Forecast: 66 / 89 °F
Wind: 10 mph from South

Location: Teterboro Airport

Current Time: Aug 30, 2015 at 4:10:15 PM

Latest Report: Aug 30, 2015 at 2:51 PM


Visibility: 10 mi

Pressure: 30.02 "Hg

Humidity: 43%

Dew point: 63 °F

Location of ParamusLocation

Historic Weather in Paramus — Graph

°F

Paramus temperature yesterday

Maximum temperature yesterday: 86 °F (at 3:51 PM)
Minimum temperature yesterday: 61 °F (at 5:51 AM)
Average temperature yesterday: 74 °F

Past Weeks' High & Low Weather Summary

 TemperatureHumidityPressure
High94 °F (Aug 16, 2:51 PM)85% (Aug 18, 7:51 AM)30.21 "Hg (Aug 18, 7:51 AM)
Low61 °F (Aug 28, 6:51 AM)30% (Aug 15, 2:51 PM)29.78 "Hg (Aug 25, 4:51 PM)
Average78 °F56%30.01 "Hg
* Reported Aug 15 2:51 PM — Aug 30 2:51 PM, Paramus, Weather by CustomWeather, © 2015

Note: Actual official high and low records may vary slightly from our data, if they occured in-between our weather recording intervals... More about our weather records

Advertising

Paramus weather history for previous 24 hours

 ConditionsComfort  
Time TempWeatherWind HumidityBarometerVisibility
2:51 PM
Sun, Aug 30
88 °FScattered clouds.10 mph43%30.02 "Hg10 mi
1:51 PM89 °FScattered clouds.10 mph41%30.04 "Hg10 mi
12:51 PM86 °FSunny.7 mph46%30.06 "Hg10 mi
11:51 AM84 °FSunny.8 mph49%30.08 "Hg10 mi
10:51 AM81 °FSunny.7 mph56%30.09 "Hg10 mi
9:51 AM79 °FSunny.3 mph58%30.10 "Hg10 mi
8:51 AM74 °FSunny.No wind67%30.09 "Hg10 mi
7:51 AM70 °FSunny.No wind73%30.10 "Hg10 mi
6:51 AM68 °FClear.No wind76%30.09 "Hg10 mi
5:51 AM68 °FClear.No wind76%30.08 "Hg10 mi
4:51 AM68 °FClear.3 mph73%30.08 "Hg10 mi
3:51 AM69 °FClear.No wind70%30.07 "Hg10 mi
2:51 AM70 °FClear.3 mph68%30.08 "Hg10 mi
1:51 AM72 °FClear.3 mph64%30.09 "Hg10 mi
12:51 AM72 °FClear.5 mph66%30.11 "Hg10 mi
11:51 PM
Sat, Aug 29
72 °FClear.7 mph66%30.09 "Hg10 mi
10:51 PM75 °FClear.8 mph58%30.09 "Hg10 mi
9:51 PM75 °FClear.N/A58%30.09 "Hg10 mi
8:51 PM76 °FClear.10 mph56%30.09 "Hg10 mi
7:51 PM77 °FSunny.9 mph52%30.09 "Hg10 mi
6:51 PM79 °FSunny.9 mph47%30.09 "Hg10 mi
5:51 PM82 °FSunny.10 mph43%30.09 "Hg10 mi
4:51 PM84 °FSunny.9 mph38%30.09 "Hg10 mi
Weather by CustomWeather, © 2015

See weather overviewHow to use our weather pages